When you browse on this site, cookies collect data to enhance your experience and personalize the content and advertising you see.
Visit our Privacy Policy to learn more. By continuing to use the site, you agree to this use of cookies and data.
  • In Sweden
  • List of Countries
  • For 7 days
  • Water Temperature
  • Weather Map
  • Weather Widgets
  • user-avatar
    Login

    Hourly Weather Rio Branco

    Today, 14 December, Saturday

    Time Temperature Precipitation Wind Pressure Humidity
    00:00 +22°C° 0.3 mm 0 mps 744 mmHg 99%
    01:00 +24°C° 0 mm 1 mps 744 mmHg 99%
    02:00 +22°C° 0.7 mm 0 mps 744 mmHg 99%
    03:00 +22°C° 0.7 mm 0 mps 744 mmHg 99%
    04:00 +22°C° 0.7 mm 0 mps 744 mmHg 99%
    05:00 +22°C° 0.1 mm 0 mps 745 mmHg 98%
    06:00 +23°C° 0.1 mm 0 mps 745 mmHg 98%
    07:00 +23°C° 0.1 mm 0 mps 746 mmHg 97%
    08:00 +25°C° 0.1 mm 0 mps 746 mmHg 91%
    09:00 +26°C° 0.1 mm 0 mps 746 mmHg 84%
    10:00 +28°C° 0.1 mm 0 mps 746 mmHg 78%
    11:00 +28°C° 1.6 mm 0 mps 745 mmHg 80%
    12:00 +30°C° 1.6 mm 1 mps 744 mmHg 83%
    13:00 +30°C° 1.6 mm 1 mps 743 mmHg 85%
    14:00 +29°C° 0.7 mm 1 mps 743 mmHg 86%
    15:00 +29°C° 0.7 mm 1 mps 742 mmHg 87%
    16:00 +29°C° 0.7 mm 1 mps 741 mmHg 88%
    17:00 +26°C° 0.1 mm 0 mps 742 mmHg 89%
    18:00 +25°C° 0.1 mm 0 mps 742 mmHg 91%
    19:00 +24°C° 0.1 mm 0 mps 743 mmHg 93%
    20:00 +24°C° 0.1 mm 0 mps 743 mmHg 93%
    21:00 +24°C° 0.1 mm 0 mps 744 mmHg 94%
    22:00 +23°C° 0.1 mm 0 mps 744 mmHg 94%
    23:00 +23°C° 0 mm 0 mps 744 mmHg 94%

    Tomorrow, 15 December, Sunday

    Time Temperature Precipitation Wind Pressure Humidity
    00:00 +23°C° 0 mm 0 mps 744 mmHg 94%
    01:00 +23°C° 0 mm 0 mps 744 mmHg 94%
    02:00 +23°C° 0.1 mm 0 mps 744 mmHg 95%
    03:00 +23°C° 0.1 mm 0 mps 744 mmHg 95%
    04:00 +23°C° 0.1 mm 0 mps 744 mmHg 96%
    05:00 +24°C° 0.2 mm 0 mps 744 mmHg 94%
    06:00 +24°C° 0.2 mm 0 mps 745 mmHg 93%
    07:00 +25°C° 0.2 mm 0 mps 746 mmHg 92%
    08:00 +26°C° 2.4 mm 0 mps 746 mmHg 92%
    09:00 +28°C° 2.4 mm 1 mps 746 mmHg 92%
    10:00 +29°C° 2.4 mm 1 mps 746 mmHg 92%
    11:00 +28°C° 0.7 mm 1 mps 745 mmHg 92%
    12:00 +28°C° 0.7 mm 1 mps 744 mmHg 93%
    13:00 +27°C° 0.7 mm 1 mps 743 mmHg 94%
    14:00 +28°C° 0 mm 1 mps 743 mmHg 90%
    15:00 +28°C° 0 mm 1 mps 742 mmHg 86%
    16:00 +27°C° 0 mm 0 mps 742 mmHg 82%
    17:00 +26°C° 0 mm 0 mps 742 mmHg 85%
    18:00 +25°C° 0 mm 0 mps 742 mmHg 88%
    19:00 +24°C° 0 mm 0 mps 743 mmHg 91%
    20:00 +24°C° 0 mm 0 mps 743 mmHg 91%
    21:00 +24°C° 0 mm 0 mps 744 mmHg 90%
    22:00 +23°C° 0 mm 0 mps 744 mmHg 90%
    23:00 +24°C° 0 mm 0 mps 744 mmHg 89%

    Day after tomorrow, 16 December, Monday

    Time Temperature Precipitation Wind Pressure Humidity
    00:00 +24°C° 0 mm 0 mps 744 mmHg 89%
    01:00 +26°C° 0 mm 1 mps 743 mmHg 88%
    02:00 +25°C° 0 mm 1 mps 743 mmHg 89%
    03:00 +25°C° 0 mm 1 mps 743 mmHg 90%
    04:00 +23°C° 0 mm 0 mps 743 mmHg 91%
    05:00 +26°C° 0 mm 1 mps 743 mmHg 90%
    06:00 +26°C° 0 mm 1 mps 744 mmHg 88%
    07:00 +27°C° 0 mm 1 mps 744 mmHg 86%
    08:00 +28°C° 0.1 mm 1 mps 744 mmHg 82%
    09:00 +30°C° 0.1 mm 2 mps 745 mmHg 78%
    10:00 +31°C° 0.1 mm 2 mps 745 mmHg 73%
    11:00 +31°C° 0.8 mm 2 mps 744 mmHg 73%
    12:00 +32°C° 0.8 mm 2 mps 743 mmHg 73%
    13:00 +32°C° 0.8 mm 2 mps 742 mmHg 73%
    14:00 +32°C° 0.6 mm 2 mps 741 mmHg 75%
    15:00 +32°C° 0.6 mm 2 mps 741 mmHg 77%
    16:00 +31°C° 0.6 mm 2 mps 740 mmHg 78%
    17:00 +30°C° 0 mm 1 mps 740 mmHg 83%
    18:00 +28°C° 0 mm 1 mps 740 mmHg 88%
    19:00 +27°C° 0 mm 1 mps 741 mmHg 93%
    20:00 +26°C° 0 mm 1 mps 741 mmHg 92%
    21:00 +26°C° 0 mm 1 mps 742 mmHg 91%
    22:00 +26°C° 0 mm 1 mps 743 mmHg 90%
    23:00 +26°C° 0.2 mm 1 mps 743 mmHg 90%

    17 December, Tuesday

    Time Temperature Precipitation Wind Pressure Humidity
    00:00 +25°C° 0.2 mm 1 mps 742 mmHg 91%
    01:00 +25°C° 0.2 mm 1 mps 742 mmHg 91%
    02:00 +25°C° 0.3 mm 1 mps 742 mmHg 92%
    03:00 +25°C° 0.3 mm 1 mps 742 mmHg 93%
    04:00 +25°C° 0.3 mm 1 mps 742 mmHg 94%
    05:00 +25°C° 0.2 mm 1 mps 743 mmHg 93%
    06:00 +26°C° 0.2 mm 1 mps 743 mmHg 93%
    07:00 +26°C° 0.2 mm 1 mps 744 mmHg 92%
    08:00 +28°C° 0.1 mm 1 mps 744 mmHg 84%
    09:00 +30°C° 0.1 mm 1 mps 744 mmHg 77%
    10:00 +32°C° 0.1 mm 1 mps 744 mmHg 70%
    11:00 +31°C° 1.2 mm 1 mps 743 mmHg 73%
    12:00 +31°C° 1.2 mm 2 mps 742 mmHg 75%
    13:00 +31°C° 1.2 mm 2 mps 741 mmHg 78%
    14:00 +31°C° 0.2 mm 2 mps 741 mmHg 76%
    15:00 +31°C° 0.2 mm 1 mps 740 mmHg 74%
    16:00 +32°C° 0.2 mm 1 mps 739 mmHg 73%
    17:00 +30°C° 0.1 mm 1 mps 740 mmHg 77%
    18:00 +29°C° 0.1 mm 1 mps 740 mmHg 82%
    19:00 +27°C° 0.1 mm 1 mps 741 mmHg 87%
    20:00 +27°C° 0.2 mm 1 mps 741 mmHg 87%
    21:00 +27°C° 0.2 mm 1 mps 742 mmHg 88%
    22:00 +27°C° 0.2 mm 1 mps 743 mmHg 88%
    23:00 +26°C° 0.5 mm 1 mps 742 mmHg 89%

    18 December, Wednesday

    Time Temperature Precipitation Wind Pressure Humidity
    00:00 +26°C° 0.5 mm 1 mps 742 mmHg 91%
    01:00 +26°C° 0.5 mm 1 mps 742 mmHg 93%
    02:00 +25°C° 0.3 mm 1 mps 742 mmHg 93%
    03:00 +25°C° 0.3 mm 1 mps 742 mmHg 94%
    04:00 +24°C° 0.3 mm 1 mps 742 mmHg 95%
    05:00 +25°C° 0.1 mm 1 mps 743 mmHg 94%
    06:00 +25°C° 0.1 mm 1 mps 743 mmHg 94%
    07:00 +25°C° 0.1 mm 1 mps 744 mmHg 94%
    08:00 +27°C° 0.2 mm 1 mps 744 mmHg 88%
    09:00 +28°C° 0.2 mm 1 mps 744 mmHg 82%
    10:00 +30°C° 0.2 mm 1 mps 744 mmHg 77%
    11:00 +30°C° 1.9 mm 1 mps 744 mmHg 81%
    12:00 +30°C° 1.9 mm 1 mps 743 mmHg 85%
    13:00 +30°C° 1.9 mm 1 mps 742 mmHg 88%
    14:00 +29°C° 2.1 mm 1 mps 742 mmHg 90%
    15:00 +29°C° 2.1 mm 1 mps 741 mmHg 92%
    16:00 +28°C° 2.1 mm 1 mps 741 mmHg 94%
    17:00 +27°C° 1.1 mm 1 mps 742 mmHg 95%
    18:00 +27°C° 1.1 mm 1 mps 742 mmHg 95%
    19:00 +26°C° 1.1 mm 1 mps 743 mmHg 96%
    20:00 +26°C° 0.9 mm 1 mps 743 mmHg 96%
    21:00 +25°C° 0.9 mm 1 mps 744 mmHg 97%
    22:00 +25°C° 0.9 mm 1 mps 744 mmHg 98%
    23:00 +25°C° 0.6 mm 1 mps 744 mmHg 98%

    19 December, Thursday

    Time Temperature Precipitation Wind Pressure Humidity
    00:00 +25°C° 0.6 mm 1 mps 743 mmHg 99%
    01:00 +25°C° 0.6 mm 1 mps 743 mmHg 99%
    02:00 +25°C° 1.1 mm 1 mps 743 mmHg 99%
    03:00 +23°C° 1.1 mm 0 mps 743 mmHg 99%
    04:00 +22°C° 1.1 mm 0 mps 743 mmHg 99%
    05:00 +22°C° 1 mm 0 mps 743 mmHg 99%
    06:00 +25°C° 1 mm 1 mps 744 mmHg 99%
    07:00 +25°C° 1 mm 1 mps 745 mmHg 99%
    08:00 +25°C° 0.4 mm 1 mps 745 mmHg 98%
    09:00 +26°C° 0.4 mm 1 mps 745 mmHg 96%
    10:00 +27°C° 0.4 mm 1 mps 746 mmHg 95%
    11:00 +26°C° 1.5 mm 1 mps 745 mmHg 96%
    12:00 +26°C° 1.5 mm 1 mps 744 mmHg 97%
    13:00 +26°C° 1.5 mm 2 mps 744 mmHg 98%
    14:00 +25°C° 1.3 mm 2 mps 743 mmHg 97%
    15:00 +25°C° 1.3 mm 1 mps 743 mmHg 97%
    16:00 +25°C° 1.3 mm 1 mps 742 mmHg 97%
    17:00 +25°C° 0 mm 1 mps 743 mmHg 97%
    18:00 +24°C° 0 mm 1 mps 743 mmHg 97%
    19:00 +22°C° 0 mm 0 mps 743 mmHg 98%
    20:00 +22°C° 0 mm 0 mps 744 mmHg 98%
    21:00 +24°C° 0 mm 1 mps 744 mmHg 98%
    22:00 +24°C° 0 mm 1 mps 745 mmHg 98%
    23:00 +24°C° 0.1 mm 1 mps 745 mmHg 98%
    Show more